INTELSAT 33E DEB, 62003

Orbit data source: Space-Track

INTELSAT 33E DEB, 62003 is space debris in GEO originally from a launch on Wed, 24 Aug 2016 UTC launched from the French Guiana (FRGUI). Debris objects in space refer to the collection of defunct objects orbiting the Earth. Examples of debris include non-operational satellites, rocket bodies, and fragments generated from explosions, collisions, or faulty payload assembly.

Loading next visibility...
Identifier
62003, 2016-053V
Orbit
GEO
Country
Flag of UnknownUnknown / ITSO
Related business
Manufacturer
Boeing/ES
Mission
Spacecraft
Bus & Motor
Unknown
Mass
Unknown
Launch date (UTC)
2016-08-24 (9 years ago)
Launch vehicle
Unknown
Launch site
French Guiana (FRGUI)
Object type
Payload
Rocket body
Debris
Shape & HBR
Unknown shape, 1.1 m
Radar Cross Section
RCS unknown

Expand to show TLE details & history
Last TLE update: 3 days ago

TLE from 3 days ago
0 INTELSAT 33E DEB
1 62003U 16053V   25311.34631873 -.00000244  00000-0  00000-0 0  9994
2 62003   1.0505  93.1750 0016764 199.6059 160.2496  1.00444272  3850
Epoch: 2025-11-07T08:18Z
TLE epoch observation values (Epoch: 2025-11-07T08:18:41.938Z)
Latitude
-0.00002°
Longitude
-78.40377°
Altitude
35,804.096 km
Speed
3.072 km/s
True Right ascension
06h 12m 15s
True Declination
0° 00' 00"
Sunlit
Object was in daylight at epoch
Visualization orbit readout
Latitude
Unknown
Longitude
Unknown
Altitude
Unknown
Speed
Unknown
Apparent Right ascension
Unknown
Apparent Declination
Unknown
Sunlit
N/A
Visualization observer readout
Local Sidereal Time
04:12:12
Azimuth
Unknown
Elevation
Unknown
Doppler factor
Unknown
Orbital elements
Apogee altitude
35,809.987 km
Perigee altitude
35,668.775 km
Semi-major axis
42,117.518 km
Eccentricity
0.00168
Inclination
1.0505°
RAAN
93.175°
Arg. of periapsis
199.6059°
True anomaly
160.31439°
Mean anomaly
160.2496°
Eccentric anomaly
160.28201°
Mean motion
0.2511 °/min
Orbital period
1,433.68 mins
BSTAR
0
Loading maneuver chart data...
Computing Atmospheric mass density...
Loading historical data...
Loading historical data...
Loading historical data...
Loading historical data...
Loading historical data...
Loading historical data...
Loading historical data...

Documentation

Showing up to 5 results
|